Date String (YYYY-MM-DD hh:mm:ss) UTC,Instrument flags,absolute air pressure of the measurement (hPa),sample flow rate (lpm),inlet stack bypass flow (lpm),air temperature of the measurement (°C),ambient temperature measured by the external sensor (°C),aerosol sample conditioner tube jacket temperature (°C),OPC LED temperature (°C),internal box temperature (°C),relative humidity of the measurement (%),span deviation,mass concentration of particles derived from Lorenz-Mie calculation of OPC scattering (μg/m³),mass concentration of particles derived from Lorenz-Mie calculation of OPC scattering (μg/m³),mass concentration of particles derived from Lorenz-Mie calculation of OPC scattering (μg/m³)
DateTimeUTC,F1_M11,P_M11,Q1_M11,Q2_M11,T1_M11,T2_M11,T3_M11,T4_M11,T5_M11,U1_M11,ZSPAN_M11,X2_M11,X0_M11,X1_M11
2023-10-14 19:00:00,SystemResetWarning,0836.8,5.00,000.00,026.4,025.1,000.0,034.7,028.1,14.3,0000.0,0005.73,0011.13,0005.32
2023-10-14 19:01:00,SystemResetWarning,0836.8,5.00,000.00,026.4,025.1,000.0,034.7,028.1,14.3,0000.0,0005.71,0010.93,0005.30
2023-10-14 19:02:00,SystemResetWarning,0836.8,5.00,000.00,026.4,025.1,000.0,034.7,028.2,13.8,0000.0,0005.72,0011.56,0005.30
2023-10-14 19:03:00,SystemResetWarning,0836.8,4.99,000.00,026.4,025.2,000.0,034.7,028.2,13.8,0000.0,0005.71,0011.94,0005.30
2023-10-14 19:04:00,SystemResetWarning,0836.8,4.99,000.00,026.4,025.2,000.0,034.7,028.2,13.5,0000.0,0005.70,0012.09,0005.30
2023-10-14 19:05:00,SystemResetWarning,0836.8,4.99,000.00,026.4,025.2,000.0,034.7,028.2,13.8,0000.0,0005.71,0012.42,0005.32
2023-10-14 19:06:00,SystemResetWarning,0836.8,4.99,000.00,026.4,025.2,000.0,034.8,028.2,14.3,0000.0,0005.68,0012.38,0005.30
2023-10-14 19:07:00,SystemResetWarning,0836.8,5.00,000.00,026.5,025.2,000.0,034.8,028.2,14.2,0000.0,0005.70,0012.22,0005.31
2023-10-14 19:08:00,SystemResetWarning,0836.8,5.01,000.00,026.5,025.2,000.0,034.8,028.2,14.1,0000.0,0005.72,0012.02,0005.32
2023-10-14 19:09:00,SystemResetWarning,0836.8,5.00,000.00,026.5,025.2,000.0,034.8,028.3,13.9,0000.0,0005.74,0012.64,0005.33
2023-10-14 19:10:00,SystemResetWarning,0836.7,5.01,000.00,026.5,025.3,000.0,034.8,028.3,14.1,0000.0,0005.75,0012.49,0005.35
2023-10-14 19:11:00,SystemResetWarning,0836.8,4.99,000.00,026.5,025.3,000.0,034.8,028.3,13.9,0000.0,0005.77,0012.25,0005.37
2023-10-14 19:12:00,SystemResetWarning,0836.7,4.99,000.00,026.5,025.3,000.0,034.8,028.3,13.6,0000.0,0005.78,0012.16,0005.38
2023-10-14 19:13:00,SystemResetWarning,0836.7,5.00,000.00,026.5,025.3,000.0,034.8,028.3,13.8,0000.0,0005.80,0012.32,0005.40
2023-10-14 19:14:00,SystemResetWarning,0836.6,5.01,000.00,026.5,025.3,000.0,034.9,028.3,13.8,0000.0,0005.82,0011.97,0005.41
2023-10-14 19:15:00,SystemResetWarning,0836.7,5.00,000.00,026.6,025.3,000.0,034.9,028.3,14.0,0000.0,0005.87,0011.90,0005.45
2023-10-14 19:16:00,SystemResetWarning,0836.7,5.01,000.00,026.6,025.3,000.0,034.9,028.3,14.0,0000.0,0005.91,0011.69,0005.48
2023-10-14 19:17:00,SystemResetWarning,0836.6,5.01,000.00,026.6,025.4,000.0,034.9,028.4,14.0,0000.0,0005.95,0012.36,0005.51
2023-10-14 19:18:00,SystemResetWarning,0836.7,5.00,000.00,026.6,025.4,000.0,034.9,028.4,14.0,0000.0,0005.96,0012.42,0005.52
2023-10-14 19:19:00,SystemResetWarning,0836.7,5.00,000.00,026.6,025.4,000.0,034.9,028.4,13.9,0000.0,0005.98,0011.90,0005.52
2023-10-14 19:20:00,SystemResetWarning,0836.6,4.99,000.00,026.6,025.4,000.0,034.9,028.4,13.8,-000.3,0005.96,0010.77,0005.50
2023-10-14 19:21:00,SystemResetWarning,0836.6,5.00,000.00,026.6,025.4,000.0,034.9,028.4,13.9,0000.0,0005.92,0010.98,0005.47
2023-10-14 19:22:00,SystemResetWarning,0836.6,5.00,000.00,026.7,025.4,000.0,035.0,028.4,14.1,0000.0,0005.90,0011.38,0005.46
2023-10-14 19:23:00,SystemResetWarning,0836.7,5.00,000.00,026.7,025.5,000.0,035.0,028.5,14.0,0000.0,0005.89,0012.20,0005.44
2023-10-14 19:24:00,SystemResetWarning,0836.6,5.00,000.00,026.7,025.5,000.0,035.0,028.5,14.0,0000.0,0005.84,0011.83,0005.42
2023-10-14 19:25:00,SystemResetWarning,0836.6,5.01,000.00,026.7,025.5,000.0,035.0,028.5,14.0,0000.4,0005.80,0011.97,0005.39
2023-10-14 19:26:00,SystemResetWarning,0836.6,5.00,000.00,026.7,025.5,000.0,035.0,028.5,14.1,0000.7,0005.74,0011.97,0005.33
2023-10-14 19:27:00,SystemResetWarning,0836.6,5.01,000.00,026.7,025.6,000.0,035.1,028.5,14.0,0001.2,0005.66,0011.94,0005.26
2023-10-14 19:28:00,SystemResetWarning,0836.7,5.00,000.00,026.8,025.6,000.0,035.1,028.5,14.0,0000.2,0005.59,0012.18,0005.18
2023-10-14 19:29:00,SystemResetWarning,0836.6,5.00,000.00,026.8,025.6,000.0,035.1,028.6,14.0,0000.0,0005.52,0012.67,0005.09
2023-10-14 19:30:00,SystemResetWarning,0836.6,4.99,000.00,026.8,025.6,000.0,035.1,028.6,14.1,0000.0,0005.43,0012.87,0005.03
2023-10-14 19:31:00,SystemResetWarning,0836.6,5.01,000.00,026.8,025.6,000.0,035.1,028.6,14.2,0000.0,0005.34,0012.58,0004.95
2023-10-14 19:32:00,SystemResetWarning,0836.6,5.00,000.00,026.8,025.6,000.0,035.1,028.6,14.2,0000.0,0005.26,0012.21,0004.87
2023-10-14 19:33:00,SystemResetWarning,0836.7,5.00,000.00,026.8,025.6,000.0,035.1,028.6,14.1,0000.0,0005.16,0011.66,0004.79
2023-10-14 19:34:00,SystemResetWarning,0836.6,5.00,000.00,026.8,025.6,000.0,035.1,028.6,14.1,0000.0,0005.11,0011.12,0004.74
2023-10-14 19:35:00,SystemResetWarning,0836.6,4.99,000.00,026.8,025.6,000.0,035.1,028.6,14.0,0000.0,0005.09,0010.85,0004.70
2023-10-14 19:36:00,SystemResetWarning,0836.6,5.00,000.00,026.8,025.6,000.0,035.1,028.6,14.0,0000.0,0005.01,0010.24,0004.63
2023-10-14 19:37:00,SystemResetWarning,0836.6,4.99,000.00,026.9,025.6,000.0,035.2,028.6,14.0,0000.0,0004.94,0010.11,0004.57
2023-10-14 19:38:00,SystemResetWarning,0836.6,5.00,000.00,026.9,025.7,000.0,035.2,028.7,14.0,0000.0,0004.87,0009.92,0004.52
2023-10-14 19:39:00,SystemResetWarning,0836.6,4.99,000.00,026.9,025.7,000.0,035.2,028.7,14.0,0000.0,0004.80,0008.64,0004.48
2023-10-14 19:40:00,SystemResetWarning,0836.5,5.00,000.00,026.9,025.7,000.0,035.2,028.7,13.8,0000.0,0004.74,0008.36,0004.44
2023-10-14 19:41:00,SystemResetWarning,0836.5,5.01,000.00,026.9,025.7,000.0,035.2,028.7,13.9,0000.0,0004.72,0007.97,0004.42
2023-10-14 19:42:00,SystemResetWarning,0836.5,5.01,000.00,026.9,025.7,000.0,035.2,028.7,13.9,0000.0,0004.72,0007.94,0004.44
2023-10-14 19:43:00,SystemResetWarning,0836.5,5.00,000.00,026.9,025.7,000.0,035.2,028.7,13.8,0000.0,0004.75,0008.01,0004.46
2023-10-14 19:44:00,SystemResetWarning,0836.5,5.00,000.00,026.9,025.7,000.0,035.2,028.7,13.7,0000.0,0004.72,0007.90,0004.45
2023-10-14 19:45:00,SystemResetWarning,0836.6,4.99,000.00,027.0,025.7,000.0,035.3,028.7,13.9,0000.0,0004.66,0007.51,0004.41
2023-10-14 19:46:00,SystemResetWarning,0836.6,4.99,000.00,027.0,025.8,000.0,035.3,028.8,13.9,0000.0,0004.63,0008.33,0004.37
2023-10-14 19:47:00,SystemResetWarning,0836.5,5.00,000.00,027.0,025.8,000.0,035.3,028.8,13.8,0000.0,0004.59,0008.62,0004.34
2023-10-14 19:48:00,SystemResetWarning,0836.5,5.01,000.00,027.0,025.8,000.0,035.3,028.8,13.8,0000.0,0004.55,0008.59,0004.31
2023-10-14 19:49:00,SystemResetWarning,0836.5,5.01,000.00,027.0,025.8,000.0,035.3,028.8,13.8,0000.0,0004.56,0008.75,0004.32
2023-10-14 19:50:00,SystemResetWarning,0836.5,5.01,000.00,027.0,025.8,000.0,035.3,028.8,13.8,0000.0,0004.58,0008.80,0004.32
2023-10-14 19:51:00,SystemResetWarning,0836.5,4.99,000.00,027.0,025.8,000.0,035.3,028.8,13.7,0000.0,0004.61,0008.56,0004.35
2023-10-14 19:52:00,SystemResetWarning,0836.5,5.00,000.00,027.0,025.8,000.0,035.3,028.8,13.7,0001.4,0004.63,0008.47,0004.38
2023-10-14 19:53:00,SystemResetWarning,0836.5,5.00,000.00,027.1,025.8,000.0,035.4,028.8,13.7,0001.5,0004.61,0008.39,0004.37
2023-10-14 19:54:00,SystemResetWarning,0836.5,5.00,000.00,027.1,025.8,000.0,035.4,028.8,13.7,0000.0,0004.62,0008.83,0004.37
2023-10-14 19:55:00,SystemResetWarning,0836.5,5.00,000.00,027.1,025.9,000.0,035.4,028.9,13.7,0000.0,0004.66,0009.10,0004.39
2023-10-14 19:56:00,SystemResetWarning,0836.5,5.00,000.00,027.1,025.9,000.0,035.4,028.9,13.6,0000.0,0004.73,0009.28,0004.42
2023-10-14 19:57:00,SystemResetWarning,0836.4,5.00,000.00,027.1,025.9,000.0,035.4,028.9,13.6,0000.0,0004.72,0008.55,0004.44
2023-10-14 19:58:00,SystemResetWarning,0836.4,5.00,000.00,027.1,025.9,000.0,035.4,028.9,13.6,0000.7,0004.74,0008.01,0004.46
2023-10-14 19:59:00,SystemResetWarning,0836.4,5.00,000.00,027.1,025.9,000.0,035.4,028.9,13.6,0000.7,0004.78,0008.05,0004.51
